RH
42 38 31 34 35 35 29 29 30 31 34 31 31 31 32 31 30 29 29 30 32 35 38 37 34 34 35 34 32 30 30 31 32 34 40 41 38 36 43 44 46 53 50 50
43 43 36 33 34 33 31 32 32 34 36 36 34 31 29 28 28 28 28 29 35 33 33 34 34 34 35 35 35 33 32 31 32 34 33 42 43 41 41 44 44 42 50 51
54 54 51 48 43 41 38 38 36 37 36 35 33 28 26 25 24 25 30 33 32 32 32 32 32 31 31 32 32 32 32 31 29 28 28 29 38 41 40 36 38 33 38 46
66 61 60 53 49 47 39 39 40 37 36 35 35 28 27 27 26 30 34 36 35 36 36 33 30 30 29 29 30 30 30 30 31 30 29 30 34 37 36 34 34 31 33 40
68 58 50 52 46 49 42 40 40 38 38 40 36 35 24 29 28 33 40 40 38 39 36 36 35 33 32 31 30 30 29 29 30 31 30 29 28 33 38 37 36 38 35 36
62 57 54 50 48 48 46 45 43 42 45 45 34 31 21 32 34 43 45 41 42 40 41 43 40 36 34 33 32 30 30 31 32 32 34 34 31 29 39 38 39 40 41 40
62 60 59 54 55 52 51 51 52 50 51 36 37 32 26 40 47 48 48 44 42 42 43 41 38 36 34 35 36 35 36 38 38 36 39 39 35 35 31 41 42 49 43 41
64 70 60 52 51 54 53 57 54 49 41 42 47 39 44 56 57 55 49 48 47 45 45 43 41 40 40 41 42 44 47 51 51 45 41 46 46 41 35 35 45 52 49 41
69 68 65 55 49 47 53 52 53 55 49 53 41 43 56 58 59 56 51 47 45 46 47 49 48 47 46 48 53 56 61 68 67 60 54 56 57 55 43 44 50 57 55 49
76 77 72 72 65 57 56 56 59 60 58 43 29 28 35 63 63 55 52 46 46 46 44 43 46 53 55 59 64 73 81 87 82 72 72 74 75 73 59 58 55 62 65 61
81 75 67 64 61 58 52 48 49 51 48 39 29 23 54 60 56 51 46 43 42 41 42 46 52 57 61 68 79 85 91 95 94 90 90 88 87 84 78 71 62 66 68 62
70 63 63 61 55 49 43 37 28 32 27 34 33 31 53 50 40 35 33 34 34 36 41 52 61 62 73 78 89 93 95 97 98 98 95 91 87 86 95 84 74 68 63 58
64 59 53 46 46 42 38 31 34 39 36 34 36 33 53 44 34 35 33 31 34 37 41 55 64 78 80 89 93 95 98 98 98 95 91 90 92 89 89 87 74 72 69 67
57 50 38 29 42 38 38 35 30 32 41 29 28 25 34 40 34 38 36 34 37 42 48 68 75 83 87 92 93 95 97 97 96 97 95 97 96 95 92 91 79 78 79 79
54 48 38 31 30 30 28 31 32 33 33 38 28 33 29 28 28 39 37 35 40 50 66 86 87 89 92 93 91 90 91 94 91 94 97 96 97 97 90 96 91 85 88 93
46 45 39 35 32 30 32 27 25 28 32 32 30 29 25 36 41 41 40 42 54 74 92 93 94 93 95 92 91 91 94 92 92 87 95 98 99 96 98 98 96 95 94 94
44 44 40 38 30 30 30 25 24 27 35 42 53 49 66 68 60 51 47 56 81 93 97 96 96 96 94 90 92 91 93 96 96 90 94 96 98 98 98 98 98 96 97 97
41 47 41 39 44 40 48 42 43 46 58 73 83 86 74 72 73 59 63 86 94 97 95 97 95 95 94 90 89 95 93 96 97 98 98 95 98 99 96 97 98 97 98 99
36 42 49 49 47 38 43 56 59 71 84 87 88 95 88 73 70 80 92 96 97 95 92 97 95 92 89 88 89 95 97 96 96 97 97 96 96 97 90 92 92 98 99 99
56 47 54 62 68 65 83 83 85 89 85 90 92 95 95 96 96 97 97 97 97 95 91 93 91 88 87 87 86 86 91 92 94 94 94 96 95 94 90 95 95 98 98 98
83 82 83 81 87 82 83 88 92 91 95 95 96 97 97 97 97 97 97 96 96 93 89 89 88 87 87 85 85 83 82 86 91 95 96 97 95 95 93 95 95 97 98 98
81 85 89 92 93 91 90 90 95 97 97 97 97 98 97 97 97 96 95 94 92 92 91 91 90 84 80 78 77 78 78 80 82 85 88 90 93 94 96 97 97 96 97 97
91 93 96 96 96 97 97 97 98 97 97 97 97 97 97 97 97 97 97 97 95 92 91 89 86 83 75 66 61 59 60 61 63 66 69 75 80 84 85 89 92 96 96 96
93 95 95 93 97 97 97 97 97 97 97 97 97 97 97 97 97 97 97 95 93 92 89 84 79 75 70 65 58 56 51 47 47 47 47 46 46 48 53 58 64 70 76 84
93 94 92 96 96 97 97 97 97 97 97 97 97 97 97 97 97 97 97 95 94 89 82 78 73 68 64 60 56 54 53 53 49 47 48 48 47 48 43 40 41 44 47 49
91 94 95 96 96 94 96 97 97 97 97 97 97 97 96 95 94 94 93 89 86 80 77 73 69 63 56 50 48 46 44 42 43 44 43 42 42 42 46 48 39 36 36 36